Regional Weather Roundup
Issued by NWS

Home | Current Version | Previous Version | Graphics & Text | Print | Product List | Glossary On
Versions: 1 2 3 4 5 6 7 8 9 10 11 12 13 14 15 16 17 18 19 20 21 22 23 24 25 26 27 28 29 30 31 32 33 34 35 36 37 38 39 40 41 42 43 44 45 46 47 48 49 50
000
ASUS43 KIND 250009
RWRIN

WEATHER ROUNDUP FOR INDIANA
NATIONAL WEATHER SERVICE INDIANAPOLIS IN
800 PM EDT TUE MAY 24 2016

NOTE: "FAIR" INDICATES FEW OR NO CLOUDS BELOW 12,000 FEET WITH NO
SIGNIFICANT WEATHER AND/OR OBSTRUCTIONS TO VISIBILITY.

* - STATION DOES NOT REPORT WEATHER SUCH AS PRECIPITATION OR FOG.

+ - STATION NOT QUALITY CONTROLLED BY THE NATIONAL WEATHER SERVICE.
    USE DATA WITH CAUTION...ESPECIALLY DEWPOINT AND RELATIVE
    HUMIDITY OBSERVATIONS.

INZ001>003-010>013-019-020-250100-
NORTHWEST INDIANA

CITY           SKY/WX    TMP DP  RH WIND       PRES   REMARKS
GARY /AIRPORT/ MOSUNNY   86  59  39 SW12      29.94R
KNOX *+        SUNNY     82  32  16 S10       29.97S
LA PORTE +     SUNNY     85  44  23 SW10G16   29.97R
6HR MIN TEMP:  85; 6HR MAX TEMP:  88;

MICHIGAN CITY+ SUNNY     79  50  36 SW6       29.96R
MONTICELLO +   SUNNY     81  42  24 SW10      29.99R
6HR MIN TEMP:  81; 6HR MAX TEMP:  85;

RENSSELAER +   SUNNY     82  46  28 S15G23    29.98R
VALPARAISO     SUNNY     83  49  30 SW13      29.97R
6HR MIN TEMP:  83; 6HR MAX TEMP:  86;


$$

LMZ046-743>745-250100-
SOUTHERN LAKE MICHIGAN

STATION/POSITION TIME  TEMP    WIND        PRES    WAVE
                       AIR SEA DIR/SP/G            HT
                 (UTC) (F)     (DEG/KT/KT) (MB)    (FT)
BURNS HARBOR     2300   84     200/ 12/ 18 1013.9F
MICHIGAN CITY    2300   84     190/ 13/ 15   N/A
5NW MICH CITY    0000   70 60  210/  8/  8   N/A     1

$$

INZ004-005-014>016-021>024-250100-
NORTH CENTRAL INDIANA

CITY           SKY/WX    TMP DP  RH WIND       PRES   REMARKS
ELKHART        MOSUNNY   81  57  44 S7        29.98F
GOSHEN         CLOUDY    79  47  32 SW9       29.99S
6HR MIN TEMP:  79; 6HR MAX TEMP:  84; 6HR PCP: TRACE;

LOGANSPORT +   SUNNY     79  46  31 SW12      30.01S
ROCHESTER +    MOSUNNY   82  46  28 S7        30.00S
SOUTH BEND     SUNNY     81  48  31 S8        29.97F
6HR MIN TEMP:  81; 6HR MAX TEMP:  85;

WARSAW +       CLOUDY    81  50  34 CALM      30.00F

$$

INZ006>009-017-018-025>027-250100-
NORTHEAST INDIANA

CITY           SKY/WX    TMP DP  RH WIND       PRES   REMARKS
ANGOLA *+      CLEAR     81  52  36 SW10      30.01S
AUBURN +       CLEAR     79  46  31 CALM      30.02S
FORT WAYNE     PTCLDY    77  47  34 S8        30.02S
6HR MIN TEMP:  77; 6HR MAX TEMP:  84;

HUNTINGTON +   CLEAR    N/A N/A N/A CALM      30.01S

$$

INZ028-029-035-036-043>045-051>053-250100-
WEST CENTRAL INDIANA

CITY           SKY/WX    TMP DP  RH WIND       PRES   REMARKS
CRAWFORDSVL +  SUNNY     77  54  44 S10       30.02R
6HR MIN TEMP:  77; 6HR MAX TEMP:  83;

GREENCASTLE +  SUNNY     77  59  53 S7        30.04R
LAFAYETTE      SUNNY     80  51  36 SW7       29.99R
6HR MIN TEMP:  80; 6HR MAX TEMP:  84;

TERRE HAUTE    SUNNY     78  55  44 S9        30.02S
6HR MIN TEMP:  78; 6HR MAX TEMP:  84;


$$

INZ030>032-037>040-046>048-054>057-064-065-250100-
CENTRAL INDIANA

CITY           SKY/WX    TMP DP  RH WIND       PRES   REMARKS
CP ATTERBURY + CLEAR     77  54  44 SW5       30.05R
COLUMBUS       PTCLDY    79  54  41 SW9       30.04S
FRANKFORT +      N/A     81  29  15 SW9       30.03S
6HR MIN TEMP:  81; 6HR MAX TEMP:  85;

GREENWOOD *+   CLEAR     81  52  36 SW7       30.04
INDIANAPOLIS   PTCLDY    77  54  44 SW10      30.02R
6HR MIN TEMP:  77; 6HR MAX TEMP:  82;

-EAGLE CREEK   CLEAR     80  51  36 SW7       30.02S
6HR MIN TEMP:  80; 6HR MAX TEMP:  83;

KOKOMO *+      SUNNY     81  52  36 SW10      30.00F
6HR MIN TEMP:  81; 6HR MAX TEMP:  84;

MARION +       CLEAR     80  49  33 S9        30.03S
SHELBYVILLE    PTCLDY    80  53  39 SW9       30.03S
6HR MIN TEMP:  79; 6HR MAX TEMP:  84;

ZIONSVILLE +   SUNNY     78  52  40 S8        30.03S
6HR MIN TEMP:  78; 6HR MAX TEMP:  83;


$$

INZ033-034-041-042-049-050-058-059-250100-
EAST CENTRAL INDIANA

CITY           SKY/WX    TMP DP  RH WIND       PRES   REMARKS
MUNCIE         CLEAR     81  48  31 SW7       30.04R
6HR MIN TEMP:  81; 6HR MAX TEMP:  84;


$$

INZ060-061-067>069-081>083-085>088-250100-
SOUTHWEST INDIANA

CITY           SKY/WX    TMP DP  RH WIND       PRES   REMARKS
EVANSVILLE     CLOUDY    78  56  46 S6        30.03F
6HR MIN TEMP:  77; 6HR MAX TEMP:  82;

HUNTINGBURG *+ CLOUDY    75  55  50 SW7       30.06R
6HR MIN TEMP:  75; 6HR MAX TEMP:  82; 6HR PCP:  0.01;

WASHINGTON +   PTSUNNY   79  57  46 S7        30.03S
6HR MIN TEMP:  79; 6HR MAX TEMP:  84;


$$

INZ062-063-066-070>080-084-089>092-250100-
SOUTH CENTRAL AND SOUTHEAST INDIANA

CITY           SKY/WX    TMP DP  RH WIND       PRES   REMARKS
BLOOMINGTON    PTSUNNY   78  52  40 SW9       30.05R
6HR MIN TEMP:  78; 6HR MAX TEMP:  84;

MADISON *+     CLEAR     77  52  41 S5        30.08S
SEYMOUR +      PTCLDY    81  57  44 S7        30.04S

$$





USA.gov is the U.S. government's official web portal to all federal, state and local government web resources and services.